This demonstration page uses our WeatherBlox Daily Observations layout. Learn more.

Left ArrowRight Arrow

41.86663, -103.66717

Hourly Observations for August 21, 2022

Temp ( °F °C ) Dew Point ( °F °C ) Humidity (%) Winds ( mph kmh ) Pressure ( in mb ) Visibility ( mi km ) Precip ( " mm )
12:53 am 00:53 Clear 65 18.3 51 10.6 61 61 ESE 10 17 29.98 1015 10 16 0.00 0.00
1:53 am 01:53 Clear 64 17.8 51 10.6 63 63 E 9 15 29.98 1015 10 16 0.00 0.00
2:53 am 02:53 Clear 62 16.7 52 11.1 70 70 ESE 8 13 29.99 1016 10 16 0.00 0.00
3:53 am 03:53 Clear 60 15.6 52 11.1 75 75 ESE 10 17 30.00 1016 10 16 0.00 0.00
4:53 am 04:53 Clear 59 15 52 11.1 77 77 ESE 8 13 30.00 1016 10 16 0.00 0.00
5:53 am 05:53 Clear 58 14.4 53 11.7 84 84 E 7 11 30.01 1016 10 16 0.00 0.00
6:53 am 06:53 Sunny 59 15 54 12.2 83 83 ESE 9 15 30.03 1017 10 16 0.00 0.00
7:53 am 07:53 Sunny 64 17.8 55 12.8 73 73 ESE 12 19 30.04 1017 10 16 0.00 0.00
8:53 am 08:53 Sunny 70 21.1 55 12.8 59 59 ESE 8 13 30.03 1017 10 16 0.00 0.00
9:53 am 09:53 Sunny 74 23.3 55 12.8 52 52 ESE 10 17 30.03 1017 10 16 0.00 0.00
10:53 am 10:53 Sunny 80 26.7 57 13.9 45 45 E 13 20 30.01 1016 10 16 0.00 0.00
11:53 am 11:53 Sunny 87 30.6 50 10 28 28 SSW 13 20 29.98 1015 10 16 0.00 0.00
12:53 pm 12:53 Sunny 89 31.7 51 10.6 27 27 S 12 19 29.96 1015 10 16 0.00 0.00
1:53 pm 13:53 Sunny 91 32.8 49 9.4 24 24 S 13 20 29.94 1014 10 16 0.00 0.00
2:53 pm 14:53 Mostly Sunny 92 33.3 49 9.4 23 23 SSE 14 22 29.93 1013 10 16 0.00 0.00
3:53 pm 15:53 Mostly Sunny 91 32.8 47 8.3 22 22 SSE 14 22 29.92 1013 10 16 0.00 0.00
4:53 pm 16:53 Sunny 91 32.8 47 8.3 22 22 SSE 15 24 29.91 1013 10 16 0.00 0.00
5:53 pm 17:53 Sunny 89 31.7 52 11.1 28 28 E 13 20 29.91 1013 10 16 0.00 0.00
6:53 pm 18:53 Mostly Cloudy 83 28.3 55 12.8 38 38 ESE 7 11 29.92 1013 10 16 0.00 0.00
7:53 pm 19:53 Partly Cloudy 81 27.2 53 11.7 38 38 SE 15 24 29.93 1014 10 16 0.00 0.00
8:53 pm 20:53 Partly Cloudy 78 25.6 52 11.1 40 40 SE 13 20 29.96 1015 10 16 0.00 0.00
9:53 pm 21:53 Clear 75 23.9 52 11.1 45 45 SE 10 17 29.97 1015 10 16 0.00 0.00
10:53 pm 22:53 Clear 69 20.6 54 12.2 59 59 ESE 7 11 29.98 1015 10 16 0.00 0.00
11:53 pm 23:53 Clear 66 18.9 55 12.8 68 68 E 7 11 29.98 1015 10 16 0.00 0.00

Powered by AerisWeather